• In Hungary
  • List of Countries
  • For 7 days
  • Water Temperature
  • Satellite Maps
  • Weather Map
  • News
  • Weather Widgets
  • user-avatar
    Login

    Hourly Weather Oupeye

    Today, 19 February, Monday

    Time Temperature Precipitation Wind Pressure Humidity
    00:00 -2°C° 0 mm 2 mps 759 mmHg 84%
    01:00 -2°C° 0 mm 2 mps 759 mmHg 84%
    02:00 -2°C° 0 mm 2 mps 758 mmHg 83%
    03:00 -2°C° 0 mm 2 mps 758 mmHg 82%
    04:00 -2°C° 0 mm 2 mps 758 mmHg 80%
    05:00 -2°C° 0 mm 2 mps 757 mmHg 78%
    06:00 -2°C° 0 mm 2 mps 757 mmHg 76%
    07:00 -1°C° 0 mm 2 mps 757 mmHg 72%
    08:00 +1°C° 0 mm 2 mps 757 mmHg 68%
    09:00 +2°C° 0 mm 2 mps 757 mmHg 64%
    10:00 +3°C° 0 mm 2 mps 756 mmHg 61%
    11:00 +4°C° 0 mm 2 mps 756 mmHg 57%
    12:00 +6°C° 0 mm 1 mps 756 mmHg 54%
    13:00 +6°C° 0 mm 1 mps 755 mmHg 54%
    14:00 +7°C° 0 mm 1 mps 755 mmHg 55%
    15:00 +7°C° 0 mm 1 mps 755 mmHg 55%
    16:00 +6°C° 0 mm 1 mps 754 mmHg 60%
    17:00 +5°C° 0 mm 1 mps 754 mmHg 64%
    18:00 +4°C° 0 mm 1 mps 754 mmHg 68%
    19:00 +4°C° 0 mm 1 mps 754 mmHg 70%
    20:00 +3°C° 0 mm 1 mps 754 mmHg 71%
    21:00 +3°C° 0 mm 1 mps 754 mmHg 73%
    22:00 +3°C° 0 mm 1 mps 754 mmHg 74%
    23:00 +3°C° 0 mm 1 mps 754 mmHg 76%

    Tomorrow, 20 February, Tuesday

    Time Temperature Precipitation Wind Pressure Humidity
    00:00 +2°C° 0 mm 1 mps 754 mmHg 77%
    01:00 +2°C° 0 mm 1 mps 754 mmHg 78%
    02:00 +1°C° 0 mm 1 mps 754 mmHg 80%
    03:00 +1°C° 0 mm 1 mps 754 mmHg 81%
    04:00 +1°C° 0 mm 1 mps 754 mmHg 81%
    05:00 0°C° 0 mm 1 mps 754 mmHg 81%
    06:00 0°C° 0 mm 1 mps 754 mmHg 81%
    07:00 +1°C° 0 mm 1 mps 754 mmHg 76%
    08:00 +2°C° 0 mm 1 mps 755 mmHg 70%
    09:00 +4°C° 0 mm 1 mps 755 mmHg 65%
    10:00 +4°C° 0 mm 2 mps 755 mmHg 61%
    11:00 +5°C° 0 mm 2 mps 755 mmHg 57%
    12:00 +6°C° 0 mm 2 mps 755 mmHg 53%
    13:00 +6°C° 0 mm 2 mps 755 mmHg 53%
    14:00 +5°C° 0 mm 3 mps 755 mmHg 54%
    15:00 +5°C° 0 mm 3 mps 755 mmHg 55%
    16:00 +3°C° 0 mm 3 mps 755 mmHg 60%
    17:00 +2°C° 0 mm 3 mps 756 mmHg 66%
    18:00 +1°C° 0 mm 2 mps 756 mmHg 71%
    19:00 0°C° 0 mm 3 mps 757 mmHg 73%
    20:00 -1°C° 0 mm 3 mps 757 mmHg 74%
    21:00 -1°C° 0 mm 3 mps 758 mmHg 76%
    22:00 -1°C° 0 mm 3 mps 758 mmHg 78%
    23:00 -2°C° 0 mm 2 mps 758 mmHg 80%

    Day after tomorrow, 21 February, Wednesday

    Time Temperature Precipitation Wind Pressure Humidity
    00:00 -2°C° 0 mm 2 mps 759 mmHg 81%
    01:00 -2°C° 0 mm 2 mps 759 mmHg 83%
    02:00 -3°C° 0 mm 2 mps 759 mmHg 84%
    03:00 -3°C° 0 mm 2 mps 759 mmHg 85%
    04:00 -3°C° 0 mm 2 mps 759 mmHg 85%
    05:00 -3°C° 0 mm 2 mps 759 mmHg 85%
    06:00 -3°C° 0 mm 2 mps 760 mmHg 86%
    07:00 -2°C° 0 mm 2 mps 760 mmHg 80%
    08:00 -1°C° 0 mm 3 mps 760 mmHg 74%
    09:00 0°C° 0 mm 3 mps 760 mmHg 68%
    10:00 +1°C° 0 mm 3 mps 760 mmHg 62%
    11:00 +3°C° 0 mm 3 mps 760 mmHg 57%
    12:00 +4°C° 0 mm 3 mps 759 mmHg 51%
    13:00 +4°C° 0 mm 4 mps 759 mmHg 51%
    14:00 +4°C° 0 mm 4 mps 759 mmHg 52%
    15:00 +4°C° 0 mm 4 mps 758 mmHg 52%
    16:00 +1°C° 0 mm 4 mps 758 mmHg 58%
    17:00 +1°C° 0 mm 3 mps 758 mmHg 64%
    18:00 -1°C° 0 mm 3 mps 758 mmHg 69%
    19:00 -1°C° 0 mm 3 mps 758 mmHg 71%
    20:00 -2°C° 0 mm 3 mps 758 mmHg 72%
    21:00 -2°C° 0 mm 3 mps 759 mmHg 73%
    22:00 -2°C° 0 mm 3 mps 758 mmHg 74%
    23:00 -2°C° 0 mm 3 mps 758 mmHg 76%

    22 February, Thursday

    Time Temperature Precipitation Wind Pressure Humidity
    00:00 -4°C° 0 mm 3 mps 758 mmHg 77%
    01:00 -4°C° 0 mm 3 mps 758 mmHg 77%
    02:00 -4°C° 0 mm 3 mps 758 mmHg 77%
    03:00 -4°C° 0 mm 3 mps 758 mmHg 78%
    04:00 -4°C° 0 mm 3 mps 758 mmHg 78%
    05:00 -4°C° 0 mm 4 mps 758 mmHg 78%
    06:00 -4°C° 0 mm 4 mps 758 mmHg 78%
    07:00 -3°C° 0 mm 4 mps 758 mmHg 73%
    08:00 -2°C° 0 mm 5 mps 758 mmHg 67%
    09:00 -1°C° 0 mm 5 mps 758 mmHg 62%
    10:00 -1°C° 0 mm 6 mps 758 mmHg 55%
    11:00 +1°C° 0 mm 6 mps 757 mmHg 49%
    12:00 +2°C° 0 mm 6 mps 757 mmHg 42%
    13:00 +2°C° 0 mm 6 mps 757 mmHg 42%
    14:00 +2°C° 0 mm 6 mps 757 mmHg 43%
    15:00 +2°C° 0 mm 6 mps 756 mmHg 43%
    16:00 +1°C° 0 mm 6 mps 756 mmHg 48%
    17:00 -1°C° 0 mm 5 mps 757 mmHg 54%
    18:00 -2°C° 0 mm 5 mps 757 mmHg 59%
    19:00 -2°C° 0 mm 5 mps 757 mmHg 61%
    20:00 -4°C° 0 mm 5 mps 757 mmHg 63%
    21:00 -4°C° 0 mm 5 mps 758 mmHg 66%
    22:00 -4°C° 0 mm 5 mps 757 mmHg 67%
    23:00 -4°C° 0 mm 5 mps 757 mmHg 69%

    23 February, Friday

    Time Temperature Precipitation Wind Pressure Humidity
    00:00 -5°C° 0 mm 5 mps 757 mmHg 71%
    01:00 -5°C° 0 mm 5 mps 757 mmHg 71%
    02:00 -5°C° 0 mm 5 mps 757 mmHg 71%
    03:00 -5°C° 0 mm 5 mps 757 mmHg 71%
    04:00 -5°C° 0 mm 5 mps 757 mmHg 70%
    05:00 -5°C° 0 mm 5 mps 757 mmHg 69%
    06:00 -6°C° 0 mm 5 mps 757 mmHg 68%
    07:00 -5°C° 0 mm 5 mps 757 mmHg 62%
    08:00 -4°C° 0 mm 6 mps 757 mmHg 55%
    09:00 -3°C° 0 mm 6 mps 758 mmHg 48%
    10:00 -2°C° 0 mm 6 mps 758 mmHg 44%
    11:00 -1°C° 0 mm 6 mps 757 mmHg 40%
    12:00 +1°C° 0 mm 6 mps 757 mmHg 36%
    13:00 +1°C° 0 mm 6 mps 757 mmHg 36%
    14:00 +1°C° 0 mm 6 mps 757 mmHg 36%
    15:00 +1°C° 0 mm 6 mps 757 mmHg 36%
    16:00 -1°C° 0 mm 6 mps 757 mmHg 40%
    17:00 -2°C° 0 mm 6 mps 758 mmHg 44%
    18:00 -2°C° 0 mm 5 mps 758 mmHg 48%
    19:00 -4°C° 0 mm 5 mps 758 mmHg 50%
    20:00 -4°C° 0 mm 5 mps 759 mmHg 52%
    21:00 -5°C° 0 mm 5 mps 759 mmHg 54%
    22:00 -5°C° 0 mm 5 mps 759 mmHg 53%
    23:00 -5°C° 0 mm 5 mps 760 mmHg 51%

    24 February, Saturday

    Time Temperature Precipitation Wind Pressure Humidity
    00:00 -5°C° 0 mm 5 mps 760 mmHg 50%
    01:00 -5°C° 0 mm 5 mps 760 mmHg 48%
    02:00 -6°C° 0 mm 5 mps 760 mmHg 46%
    03:00 -6°C° 0 mm 5 mps 760 mmHg 43%
    04:00 -6°C° 0 mm 5 mps 760 mmHg 41%
    05:00 -6°C° 0 mm 5 mps 761 mmHg 39%
    06:00 -6°C° 0 mm 5 mps 761 mmHg 37%
    07:00 -5°C° 0 mm 6 mps 761 mmHg 35%
    08:00 -4°C° 0 mm 6 mps 762 mmHg 32%
    09:00 -3°C° 0 mm 7 mps 762 mmHg 30%
    10:00 -2°C° 0 mm 7 mps 762 mmHg 29%
    11:00 -1°C° 0 mm 7 mps 762 mmHg 29%
    12:00 0°C° 0 mm 7 mps 762 mmHg 28%
    13:00 0°C° 0 mm 7 mps 762 mmHg 30%
    14:00 +1°C° 0 mm 6 mps 762 mmHg 31%
    15:00 +1°C° 0 mm 6 mps 761 mmHg 32%
    16:00 -1°C° 0 mm 6 mps 762 mmHg 36%
    17:00 -2°C° 0 mm 6 mps 762 mmHg 39%
    18:00 -4°C° 0 mm 5 mps 762 mmHg 43%
    19:00 -4°C° 0 mm 5 mps 763 mmHg 45%
    20:00 -4°C° 0 mm 5 mps 763 mmHg 47%
    21:00 -5°C° 0 mm 5 mps 763 mmHg 49%
    22:00 -5°C° 0 mm 5 mps 763 mmHg 52%
    23:00 -6°C° 0 mm 5 mps 763 mmHg 55%
    Show more